Regional Weather Roundup
Issued by NWS

Home | Current Version | Previous Version | Graphics & Text | Print | Product List | Glossary On
Versions: 1 2 3 4 5 6 7 8 9 10 11 12 13 14 15 16 17 18 19 20 21 22 23 24 25 26 27 28 29 30 31 32 33 34 35 36 37 38 39 40 41 42 43 44 45 46 47 48 49 50
000
ASUS45 KCYS 131010
RWRWY

WYOMING REGIONAL WEATHER ROUNDUP
NATIONAL WEATHER SERVICE CHEYENNE WY
400 AM MDT SUN JUL 13 2014

NOTE:  "FAIR" INDICATES FEW OR NO CLOUDS BELOW 12,000 FEET
WITH NO SIGNIFICANT WEATHER AND/OR OBSTRUCTIONS TO VISIBILITY.

WYZ001-131100-
YELLOWSTONE NATIONAL PARK

CITY           SKY/WX    TMP DP  RH WIND       PRES   REMARKS
LK YELLOWSTONE   N/A     41  40  96 CALM      30.53S
W YELLOWSTONE  NOT AVBL

$$
WYZ002>013-054>058-071-098>099-131100-
NORTHERN WYOMING

CITY           SKY/WX    TMP DP  RH WIND       PRES   REMARKS
JACKSON        CLEAR     48  48 100 N7        30.43S
CODY           CLEAR     63  52  67 SW6       30.31R
GREYBULL       NOT AVBL
WORLAND        NOT AVBL
SHERIDAN       NOT AVBL
BUFFALO        PTCLDY    60  47  61 SW8       30.30F
GILLETTE       PTCLDY    55  47  74 CALM      30.26F
HULETT         FAIR      55  46  71 MISG      30.27
NEWCASTLE      FAIR      55  54  94 N7        30.27

$$
WYZ014>020-022>026-101>103-131100-
CENTRAL WYOMING

CITY           SKY/WX    TMP DP  RH WIND       PRES   REMARKS
BIG PINEY      NOT AVBL
PINEDALE       SUNNY     48  48 100 NW5       30.46S
DUBOIS         FAIR      46  43  87 NW10      30.46S
LANDER         NOT AVBL
RIVERTON       NOT AVBL
CASPER         CLEAR     55  50  83 N7        30.33S
DOUGLAS        CLEAR     55  53  93 NW5       30.31F

$$
WYZ021-027>030-104>119-131100-
SOUTHERN WYOMING

CITY           SKY/WX    TMP DP  RH WIND       PRES   REMARKS
EVANSTON       NOT AVBL
KEMMERER       SUNNY     54  46  76 N6        30.46S
FORT BRIDGER   FAIR      58  54  84 SE5       30.45F
ROCK SPRINGS   NOT AVBL
DIXON          FAIR      60  51  73 NE9       30.38F
RAWLINS        PTCLDY    59  51  75 NE9       30.40S
SARATOGA       FAIR      55  50  82 SE3       30.42S
LARAMIE        PTCLDY    53  52  96 SW6       30.43S
CHEYENNE       CLEAR     59  56  89 W8        30.36S
TORRINGTON     PTCLDY    61  59  93 CALM      30.24F

$$


USA.gov is the U.S. government's official web portal to all federal, state and local government web resources and services.